Track RESURS DK-1 now! 10-day predictions RESURS DK-1 is classified as:
1 29228U 06021A 25199.52479120 .00001907 00000-0 11993-3 0 9991 2 29228 69.9328 121.9431 0002554 157.6995 202.4281 15.11099355 52130